Location: Buire
(49.9030°N, 4.0550°E)
Time: 16:40:32
(UTC+00:00)

Daily predictions for brighter satellites

Satellite Brightness Start Highest point End
(mag) Time Altitude Azimuth Time Altitude Azimuth Time Altitude Azimuth
MOS 1 Rocket 4.0 20:27:45 10° SE 20:32:59 52° ENE 20:38:08 10° N
Cosmos 2333 Rocket 3.5 20:29:34 10° NNW 20:34:42 32° NE 20:39:49 10° ESE
Cosmos 2285 Rocket 4.3 20:28:40 10° SSW 20:35:01 79° WNW 20:41:28 10° NNE
Cosmos 841 Rocket 4.1 20:30:02 10° NNW 20:35:08 47° ENE 20:40:12 10° SE
Atlas Centaur 2 4.4 20:32:19 10° SW 20:37:28 18° S 20:42:35 10° SE
Cosmos 1441 Rocket 3.1 20:34:07 10° N 20:37:43 64° ENE 20:41:18 10° SSE
SL-16 R/B 2.5 20:32:17 10° NNW 20:37:55 59° NE 20:43:30 10° SE
Cosmos 1763 Rocket 3.9 20:34:04 10° NNW 20:39:16 62° WSW 20:44:23 10° S
Cosmos 2369 4.4 20:33:53 10° NW 20:39:27 53° WSW 20:44:59 10° S
ERS-1 Rocket 3.0 20:34:27 10° SSE 20:39:28 82° ENE 20:44:32 10° NNW
RESURS DK-1 3.3 20:37:30 10° NNW 20:41:18 36° NE 20:45:06 10° ESE
Resurs 01 Rocket 4.0 20:38:17 10° SW 20:41:36 20° W 20:44:54 10° NW
In-Cosmos 22 4.5 20:37:59 10° SSE 20:43:25 50° E 20:48:44 10° NNE
Cosmos 2082 Rocket 2.4 20:38:00 10° SSW 20:43:44 82° WNW 20:49:29 10° NNE
Spot 2 Rocket 3.6 20:39:02 10° SSE 20:44:04 69° ENE 20:49:08 10° N
Cosmos 1933 Rocket 3.7 20:41:14 10° NNW 20:45:40 80° W 20:50:06 10° S
Cosmos 1470 3.0 20:42:37 10° NNW 20:46:18 66° W 20:49:56 10° S
SPOT 5 3.3 20:44:34 10° S 20:48:47 52° W 20:53:05 10° NNW
Cosmos 1300 3.8 20:46:41 10° NNE 20:49:47 27° ENE 20:52:52 10° SE
Cosmos 1908 3.1 20:49:54 10° NNW 20:53:30 79° W 20:57:06 10° S
Cosmos 1346 Rocket 3.9 20:54:51 10° N 20:58:20 31° ENE 21:01:35 11° SE
Cosmos 1674 3.9 20:57:25 10° SW 21:00:42 39° WNW 21:03:59 10° N
ATLAS 2AS CENTAUR R/B 3.2 20:53:54 10° NW 21:00:44 56° NE 21:07:16 10° ESE
Meteor 1-22 Rocket 4.3 20:56:54 10° N 21:02:31 78° ENE 21:08:19 10° SSE
Ariane Rocket 3.1 21:03:30 10° SSE 21:08:35 80° WSW 21:13:43 10° NNW
Cosmos 1758 3.6 21:05:46 10° N 21:09:35 51° ENE 21:12:54 13° SSE
Meteor 1-4 Rocket 4.4 21:09:54 10° ESE 21:10:56 11° E 21:11:58 10° ENE
Cosmos 1356 Rocket 4.2 21:09:22 12° SSE 21:12:53 36° E 21:16:45 10° NNE
COSMOS 2406 3.9 21:11:21 10° SW 21:17:02 60° WNW 21:22:45 10° NNE
SPOT 3 Rocket 3.7 21:12:25 10° S 21:17:33 74° WSW 21:22:44 10° NNW
Cosmos 1850 Rocket 4.5 21:13:51 10° S 21:18:45 42° ESE 21:23:38 10° NE
Meteor 1-13 Rocket 4.4 21:13:48 10° SSW 21:19:36 80° WNW 21:25:20 10° N
Cosmos 1707 Rocket 4.1 21:16:10 12° SSE 21:19:59 44° E 21:24:13 10° NNE
SL-27 R/B 3.5 21:19:33 16° SE 21:20:26 18° ESE 21:22:28 10° NE
ARIANE 5 R/B 4.0 21:17:31 10° ESE 21:21:00 26° ENE 21:24:36 10° N
Cosmos 1980 Rocket 4.3 21:17:46 10° NW 21:21:49 20° W 21:25:51 10° SW
Cosmos 2322 Rocket 2.3 21:16:50 10° NNW 21:22:33 78° ENE 21:27:28 14° SSE
S3M 4.2 21:16:10 10° NNW 21:22:34 77° W 21:28:52 10° S
Spot 1 4.3 21:19:27 10° NNE 21:23:51 58° ESE 21:28:28 10° S
Cosmos 1655 Rocket 4.1 21:23:28 10° S 21:29:50 73° E 21:36:14 10° NNE
SJ 16-02 2.5 21:28:53 16° SE 21:31:17 25° E 21:34:48 10° NE
Landsat 5 3.4 21:27:20 10° NNE 21:31:17 64° ESE 21:35:02 12° S
Cosmos 2278 4.3 21:25:50 10° NW 21:31:20 50° WSW 21:36:25 12° S
Cosmos 1741 Rocket 4.2 21:32:06 10° S 21:37:14 57° ESE 21:42:26 10° NNE
USA 281 3.5 21:32:45 13° SE 21:38:35 62° NE 21:45:04 10° NNW
Cosmos 2266 Rocket 4.3 21:33:17 10° SSW 21:39:35 72° WNW 21:46:01 10° N
Cosmos 1400 Rocket 3.0 21:35:54 10° SSW 21:39:46 67° WNW 21:43:38 10° N
COSMOS 2428 4.2 21:35:31 10° NNW 21:40:28 29° NE 21:45:24 10° ESE
Cosmos 1733 Rocket 3.0 21:36:26 10° N 21:40:52 86° E 21:44:16 17° S
MetOp-A 4.1 21:37:25 15° SSE 21:41:49 83° WSW 21:47:07 10° NNW
GP-B 4.4 21:38:22 10° NNE 21:42:10 27° E 21:44:46 16° SE
Okean 3 3.8 21:39:26 17° SSE 21:42:19 47° E 21:46:20 10° NNE
Terra 3.2 21:38:41 10° SSW 21:42:54 32° W 21:47:09 10° NNW
Cosmos 968 Rocket 3.8 21:41:01 14° S 21:45:17 48° ESE 21:50:17 10° NNE
Cosmos 1814 Rocket 4.2 21:40:42 10° NNW 21:45:58 64° ENE 21:50:00 17° SE
SL-4 R/B 2.3 21:43:19 10° W 21:47:12 69° N 21:51:22 10° E
Cosmos 2228 Rocket 3.2 21:44:42 11° S 21:49:02 87° W 21:53:39 10° N
Cosmos 2219 Rocket 2.6 21:45:38 10° NNW 21:51:16 58° NE 21:55:47 16° SE
Cosmos 1908 Rocket 4.3 21:48:02 10° N 21:52:09 39° ENE 21:54:53 19° SE
Cosmos 1315 Rocket 3.6 21:51:04 20° SE 21:53:09 34° E 21:56:48 10° NNE
ATLAS CENTAUR R/B 1.3 21:52:13 17° S 21:54:33 43° ESE 21:57:58 10° NE
Meteor 2-10 Rocket 4.2 21:50:20 10° NNW 21:55:50 54° W 22:00:34 13° S
Cosmos 1953 2.7 21:54:58 10° N 21:58:42 47° ENE 22:00:51 22° SE
Cosmos 1455 2.6 21:58:33 10° N 22:01:55 43° ENE 22:03:41 23° SE
H-2A R/B 3.5 21:59:30 17° SE 22:02:19 37° ENE 22:06:16 10° N
Cosmos 1242 Rocket 3.6 22:04:20 18° ESE 22:04:40 18° E 22:06:41 10° NE
USA 234 3.6 21:59:24 10° ENE 22:05:55 70° NNW 22:12:25 10° WSW
Okean 1-7 3.2 22:04:58 22° SSE 22:07:35 55° E 22:11:50 10° NNE
BREEZE-M DEB (TANK) 3.1 22:06:20 10° W 22:08:22 31° SSW 22:09:09 26° SSE
CZ-2C R/B 3.8 22:04:32 10° NNE 22:08:54 56° E 22:11:36 22° S
Cosmos 2360 Rocket 2.5 22:08:42 10° NW 22:14:17 59° WSW 22:18:06 20° S
ALOS 2 3.9 22:11:53 16° ESE 22:14:45 31° ENE 22:18:38 10° N
RESURS DK-1 3.7 22:15:26 10° NW 22:18:55 28° WSW 22:21:10 17° SSW
Cosmos 2333 Rocket 2.5 22:13:41 10° NW 22:19:19 59° WSW 22:23:08 21° S
SL-16 R/B 3.7 22:16:57 10° NW 22:21:39 27° WSW 22:25:47 12° SSW
Cosmos 1300 4.5 22:21:32 10° NW 22:24:23 23° W 22:26:54 12° SW
Atlas Centaur 2 4.3 22:20:39 10° SW 22:25:13 16° SSW 22:25:49 16° S
EXPRESS MD2 1.6 22:24:48 10° W 22:27:04 87° S 22:27:54 32° E
OPS 8737 4.0 22:24:48 10° NW 22:27:44 74° SW 22:28:45 37° SSE
SL-08 R/B 4.4 22:25:46 20° S 22:30:11 78° E 22:36:19 10° NNE
BREEZE-M DEB (TANK) 3.8 22:15:36 10° W 22:31:58 86° S 22:36:03 10° E
Aureole 3 4.2 22:30:50 16° SSW 22:33:46 50° WNW 22:38:20 10° N
Cosmos 1703 Rocket 3.6 22:32:44 26° S 22:35:12 71° E 22:39:40 10° NNE
Cosmos 1833 4.2 22:30:08 11° SSW 22:35:36 88° WNW 22:41:16 10° NNE
DNEPR-1 R/B 4.4 22:29:32 10° NW 22:36:22 74° SW 22:39:56 24° SSE
Meteor 1-4 Rocket 3.2 22:41:49 21° SW 22:43:24 38° WNW 22:46:16 10° N
Cosmos 839 Rocket 4.3 22:37:02 10° NW 22:43:53 59° WSW 22:47:42 24° S
Cosmos 1932 4.4 22:38:31 12° SSW 22:44:26 72° SE 22:50:42 10° NE
Cosmos 2322 3.7 22:40:07 10° NNW 22:45:51 83° ENE 22:49:29 23° SSE
Cosmos 2237 Rocket 3.5 22:41:41 10° NNW 22:46:55 36° NE 22:52:05 10° ESE
BlueWalker 3 3.7 22:50:04 17° ESE 22:50:04 17° ESE 22:51:35 10° E
ATLAS 2AS CENTAUR R/B 3.2 22:45:08 10° NW 22:51:30 43° WSW 22:55:16 22° S
SL-27 R/B 4.2 22:51:01 10° WSW 22:53:17 22° WNW 22:55:33 10° N
Cosmos 2227 Rocket 4.3 22:53:59 10° ESE 22:55:45 11° E 22:57:31 10° ENE
ARIANE 5 R/B 3.5 22:54:58 22° SSW 22:57:15 39° W 23:01:20 10° NNW
PSLV R/B 4.3 22:56:30 10° N 23:00:27 58° WNW 23:02:51 22° SW
Okean 2 4.4 23:00:22 18° SW 23:03:00 40° WNW 23:06:49 10° N
Cosmos 2322 Rocket 4.0 23:01:58 10° NW 23:05:56 20° W 23:09:15 12° SW
Cosmos 1570 Rocket 4.1 23:01:09 10° NNW 23:06:29 69° WSW 23:09:22 28° S
Meteor 2-5 Rocket 4.5 23:03:31 23° SSE 23:06:45 43° E 23:12:14 10° NNE
PSLV R/B 4.3 23:03:27 10° NNE 23:07:26 38° E 23:08:58 28° SE
Cosmos 1703 3.9 23:06:48 30° SE 23:07:55 38° E 23:11:21 10° NNE
Cosmos 1745 Rocket 4.0 23:05:11 23° S 23:09:23 88° WNW 23:15:48 10° N
SJ 16-02 2.4 23:05:35 11° SW 23:09:25 40° WNW 23:13:32 10° N
Cosmos 1241 Rocket 4.5 23:04:20 10° SW 23:10:32 82° NW 23:16:51 10° NE
COSMOS 2455 3.4 23:08:59 26° SSE 23:11:46 40° ESE 23:17:20 10° NE
Cosmos 2297 Rocket 3.2 23:13:10 22° SE 23:15:29 30° ESE 23:20:21 10° NE
Nadezhda 1 Rocket 4.3 23:11:37 10° NNW 23:17:50 60° W 23:21:42 23° SSW
Cosmos 2181 Rocket 4.5 23:12:03 10° N 23:18:08 53° ENE 23:22:13 21° SE
GP-B 4.3 23:15:23 10° NNW 23:19:23 35° W 23:22:05 18° SW
Cosmos 1408 2.0 23:22:14 53° SSW 23:22:49 78° W 23:25:49 10° N
USA 281 4.2 23:19:37 19° SSW 23:23:26 33° WSW 23:29:18 10° NW
COSMOS 2428 2.8 23:19:30 10° NW 23:25:09 65° WSW 23:28:12 28° S
SL-4 R/B 2.0 23:22:07 10° WNW 23:26:11 86° NNE 23:30:29 10° ESE
GEOS 3 Rocket 4.1 23:24:36 10° NE 23:29:28 40° ESE 23:31:28 28° S
ATLAS CENTAUR R/B 3.2 23:29:18 10° W 23:32:20 26° NW 23:35:28 10° NNE
Cosmos 1782 Rocket 4.4 23:28:19 10° NNW 23:32:21 39° W 23:34:15 25° SW
Cosmos 1953 4.5 23:31:46 10° NW 23:34:08 16° W 23:35:58 12° WSW
Cosmos 2219 Rocket 3.4 23:30:06 10° NW 23:34:52 28° WSW 23:37:28 20° SW
Cosmos 1455 4.3 23:34:00 10° NW 23:36:00 15° W 23:37:24 12° WSW
Cosmos 1242 Rocket 4.1 23:35:32 16° W 23:36:37 19° WNW 23:38:45 10° NNW
Cosmos 2208 Rocket 4.4 23:32:08 10° NNW 23:37:10 51° WSW 23:39:34 28° SSW
H-2A R/B 3.9 23:35:29 20° SW 23:37:18 27° W 23:40:59 10° NW
Cosmos 1892 3.8 23:38:13 24° ESE 23:39:12 28° E 23:42:16 10° NNE
Cosmos 158 Rocket 4.4 23:34:29 10° NNW 23:39:40 52° WSW 23:42:07 28° SSW
Cosmos 371 Rocket 3.3 23:38:59 31° S 23:41:13 67° ESE 23:46:01 10° NNE
BREEZE-M DEB (TANK) 4.1 23:39:09 10° W 23:42:49 85° S 23:55:38 10° E
NOSS 8 (E) 4.3 23:45:42 36° SSW 23:47:01 78° SE 23:50:08 10° NE
Cosmos 773 Rocket 3.9 23:41:56 10° NNW 23:47:06 79° WSW 23:49:51 28° SSE
Cosmos 2151 Rocket 3.7 23:43:31 10° N 23:47:56 68° ENE 23:50:04 29° SSE
USA 234 4.3 23:42:16 10° ENE 23:48:30 49° N 23:54:44 10° WNW
ALOS 2 3.7 23:49:16 24° SW 23:51:03 33° W 23:55:03 10° NNW
GENESIS II 4.2 23:49:40 25° SW 23:51:36 67° NW 23:55:15 10° NE
Cosmos 2263 Rocket 4.3 23:51:04 10° ESE 23:53:24 13° E 23:55:43 10° ENE
Cosmos 1503 Rocket 4.1 23:51:55 29° S 23:54:40 67° ESE 23:59:57 10° NNE
Okean 2 Rocket 3.2 23:50:48 10° N 23:55:17 74° E 23:57:29 29° SSE
